星链-35002 (STARLINK-35002)

导读

STARLINK-35002是美国于2025年8月22日发射的星链卫星,隶属于SpaceX公司的星链星座项目。星链计划旨在构建全球卫星互联网星座,为全球多地提供高速低延迟宽带网络服务。该卫星入轨后,将进一步扩充星链星座规模,提升星座的全球覆盖能力与服务稳定性,推动全球互联网络基础设施建设。

基本信息
目录编号:
65291
目录名称:
STARLINK-35002
国际标识:
2025-184U
轨道中心:
EARTH
卫星名称:
星链-35002
卫星全名:
星链-35002 (STARLINK-35002)
卫星状态:
在轨 (已飞行295 天)
发射日期:
2025-08-22 UTC
国别 :
美国 (US)
星等 :
--
轨道信息
数据来源 国际轨道数据 AOE轨道数据
星历时间 2026-06-13T10:34:22+0800
13小时前
查看轨道信息
2026-06-13T06:00:00+0800
18小时前
查看轨道信息
半长轴 6927.613km 6927.649km
偏心率 0.000114 0.0000989
轨道倾角 97.366° 97.371°
近地点辐角 93.288° 98.982°
升交点赤经 215.789° 215.611°
平近点角 266.848° 309.048°
近地点 548.686km 548.826km
远地点 550.266km 550.198km
周期 95.639分钟 95.640分钟
每日圈数 15.056615 15.0565
详细信息
固有亮度:
5
最大亮度:
2.5
卫星平台:
Starlink V1.0
覆盖范围:
全球
运营商:
太空探索技术公司
运营商所在国:
美国
制造商(研发单位):
太空探索技术公司
制造商所在国:
美国
使用方式:
暂无
卫星简介
Starlink 计划是 SpaceX 推出的全球卫星互联网项目,通过发射低轨道卫星,为全球尤其是偏远地区提供高速、低延迟的互联网服务。自 2019 年起,Starlink 已部署数千颗卫星,旨在缩小全球数字鸿沟,推动互联网普及。该项目还为军事、航空等行业提供通信支持,带来广泛经济效益。
2D轨道图
3D轨道图
轨道高度分析图
轨道倾角分析图
轨道综合分析图
查看轨道综合分析图